Home > Weather > Brisbane > Past weeks

Flag for Australia Past Weather in Brisbane, Queensland, Australia — Yesterday and Last 2 Weeks

Now
66 °F

Sunny.


Feels Like: 66 °F
Forecast: 49 / 69 °F
Wind: 9 mph from West

Location: Brisbane Airport M. O

Current Time: Jul 26, 2016 at 12:39:00 PM

Latest Report: Jul 26, 2016 at 12:00 PM


Visibility: 10 mi

Pressure: 30.07 "Hg

Humidity: 32%

Dew Point: 36 °F

Location of BrisbaneLocation

Past Weather in Brisbane — Graph

°F

Brisbane Temperature Yesterday

Maximum temperature yesterday: 72 °F (at 2:00 PM)
Minimum temperature yesterday: 54 °F (at 2:00 AM)
Average temperature yesterday: 62 °F

High & Low Weather Summary for the Past Weeks

 TemperatureHumidityPressure
High84 °F (Jul 23, 12:00 PM)100% (Jul 11, 10:30 PM)30.36 "Hg (Jul 11, 10:30 PM)
Low54 °F (Jul 14, 2:00 AM)21% (Jul 13, 3:00 PM)29.74 "Hg (Jul 23, 12:30 PM)
Average64 °F70%30.12 "Hg
* Reported Jul 11 11:00 AM — Jul 26 11:00 AM, Brisbane, Weather by CustomWeather, © 2016

Note: Actual official high and low records may vary slightly from our data, if they occured in-between our weather recording intervals... More about our weather records

Advertising

Brisbane Weather History for the Previous 24 Hours

Scroll right to see more
 ConditionsComfort  
Time TempWeatherWind HumidityBarometerVisibility
11:00 AM
Tue, Jul 26
63 °FSunny.9 mph34%30.09 "Hg10 mi
10:30 AM63 °FSunny.10 mph37%30.09 "Hg10 mi
10:00 AM61 °FSunny.9 mph36%30.09 "Hg10 mi
9:30 AM61 °FPassing clouds.6 mph36%30.09 "HgN/A
9:00 AM61 °FSunny.7 mph39%30.09 "Hg10 mi
8:30 AM59 °FSunny.3 mph45%30.09 "Hg10 mi
8:00 AM57 °FSunny.5 mph55%30.09 "Hg10 mi
7:30 AM57 °FSunny.6 mph51%30.09 "Hg10 mi
7:00 AM55 °FSunny.No wind59%30.09 "Hg10 mi
6:30 AM55 °FSunny.6 mph55%30.07 "Hg10 mi
6:00 AM55 °FSunny.2 mph55%30.07 "Hg10 mi
5:30 AM55 °FClear.6 mph55%30.07 "Hg10 mi
5:00 AM54 °FClear.6 mph63%30.07 "Hg10 mi
4:30 AM54 °FClear.6 mph63%30.04 "Hg10 mi
4:00 AM54 °FClear.5 mph67%30.04 "Hg10 mi
3:00 AM54 °FClear.5 mph67%30.04 "Hg10 mi
2:00 AM54 °FClear.5 mph67%30.04 "Hg10 mi
1:30 AM54 °FClear.5 mph67%30.07 "Hg10 mi
1:00 AM54 °FClear.1 mph67%30.07 "Hg10 mi
12:00 AM55 °FClear.No wind59%30.07 "Hg10 mi
11:30 PM
Mon, Jul 25
57 °FClear.3 mph51%30.07 "Hg10 mi
11:00 PM57 °FClear.3 mph51%30.07 "Hg10 mi
10:30 PM57 °FClear.2 mph55%30.07 "Hg10 mi
10:00 PM57 °FClear.6 mph55%30.07 "Hg10 mi
9:30 PM59 °FClear.5 mph48%30.07 "Hg10 mi
9:00 PM57 °FClear.6 mph51%30.07 "Hg10 mi
8:30 PM59 °FClear.No wind48%30.07 "Hg10 mi
8:00 PM59 °FClear.5 mph48%30.04 "Hg10 mi
7:00 PM59 °FClear.8 mph48%30.04 "Hg10 mi
6:30 PM64 °FClear.7 mph37%30.01 "Hg10 mi
6:00 PM64 °FClear.9 mph34%30.01 "Hg10 mi
5:00 PM68 °FClear.14 mph28%29.98 "Hg10 mi
4:00 PM72 °FPassing clouds.6 mph25%29.98 "HgN/A
3:30 PM72 °FSunny.13 mph23%29.98 "Hg10 mi
3:00 PM72 °FSunny.13 mph22%29.98 "Hg10 mi
2:30 PM72 °FSunny.12 mph27%29.98 "Hg10 mi
2:00 PM72 °FSunny.13 mph25%29.98 "Hg10 mi
1:30 PM70 °FPassing clouds.15 mph27%29.98 "HgN/A
1:00 PM70 °FSunny.9 mph27%30.01 "Hg10 mi
12:30 PM70 °FSunny.9 mph29%30.01 "Hg10 mi
12:00 PM68 °FPassing clouds.8 mph28%30.01 "HgN/A
Weather by CustomWeather, © 2016

See weather overviewHow to use our weather pages